Flag for Germany Weather past 2 weeks in Cottbus, Brandenburg, Germany

Now
58 °F

Scattered clouds.


Feels Like: 59 °F
Forecast: 42 / 60 °F
Wind: 3 mph from Northwest

Location: Cottbus

Current Time: Sep 23, 2014 at 5:19:14 PM

Latest Report: Sep 23, 2014 at 4:00 PM


Visibility: 19 mi

Pressure: 30.09 "Hg

Humidity: 47%

Dew point: 38 °F

Location of CottbusLocation

Historic Weather in Cottbus — Graph

°F

Cottbus temperature yesterday

Maximum temperature yesterday: 58 °F (at 12:00 PM)
Minimum temperature yesterday: 49 °F (at 9:00 PM)
Average temperature yesterday: 54 °F

Past Weeks' High & Low Weather Summary

 TemperatureHumidityPressure
High78 °F (Sep 15, 4:00 PM)100% (Sep 15, 3:00 AM)30.12 "Hg (Sep 15, 3:00 AM)
Low49 °F (Sep 23, 8:00 AM)42% (Sep 18, 2:00 PM)29.80 "Hg (Sep 22, 2:00 PM)
Average61 °F82%30.00 "Hg
* Reported Sep 8 4:00 PM — Sep 23 4:00 PM, Cottbus, Weather by CustomWeather, © 2014

Note: Actual official high and low records may vary slightly from our data, if they occured in-between our weather recording intervals... More about our weather records

Advertising

Cottbus weather history for previous 24 hours

 ConditionsComfort  
Time TempWeatherWind HumidityBarometerVisibility
4:00 PM
Sep 23
58 °FScattered clouds.3 mph47%30.09 "Hg19 mi
3:00 PM57 °FPassing clouds.5 mph48%30.09 "Hg28 mi
2:00 PM57 °FPassing clouds.5 mph49%30.09 "Hg28 mi
1:00 PM56 °FPassing clouds.6 mph53%30.09 "Hg28 mi
12:00 PM54 °FScattered clouds.6 mph60%30.08 "Hg28 mi
11:00 AM53 °FScattered clouds.5 mph65%30.07 "Hg28 mi
10:00 AM51 °FPassing clouds.6 mph73%30.07 "Hg25 mi
9:00 AM50 °FPassing clouds.6 mph77%30.05 "Hg22 mi
8:00 AM49 °FScattered clouds.5 mph82%30.03 "Hg22 mi
7:00 AM49 °FOvercast.3 mph88%30.00 "Hg16 mi
6:00 AM49 °FDrizzle. Low clouds.3 mph92%29.98 "Hg6 mi
5:00 AM49 °FLow clouds.3 mph95%29.96 "Hg16 mi
4:00 AM50 °FDrizzle. Low clouds.5 mph91%29.96 "Hg7 mi
3:00 AM50 °FLow clouds.5 mph90%29.94 "Hg25 mi
2:00 AM50 °FLow clouds.5 mph92%29.93 "Hg28 mi
1:00 AM50 °FLow clouds.5 mph94%29.92 "Hg22 mi
12:00 AM50 °FLight freezing rain. Low clouds.5 mph95%29.91 "Hg5 mi
11:00 PM
Sep 22
49 °FDrizzle. Low clouds.3 mph97%29.90 "Hg2 mi
10:00 PM50 °FDrizzle. Low clouds.3 mph94%29.89 "Hg11 mi
9:00 PM49 °FLow clouds.3 mph94%29.89 "Hg17 mi
8:00 PM50 °FLow clouds.5 mph86%29.88 "Hg25 mi
7:00 PM52 °FOvercast.3 mph77%29.87 "Hg28 mi
6:00 PM52 °FOvercast.3 mph77%29.85 "Hg28 mi
5:00 PM53 °FOvercast.5 mph69%29.83 "Hg43 mi
Weather by CustomWeather, © 2014

See weather overviewHow to use our weather pages